Regional Weather Roundup
Issued by NWS

Home | Current Version | Previous Version | Text Only | Print | Product List | Glossary Off
Versions: 1 2 3 4 5 6 7 8 9 10 11 12 13 14 15 16 17 18 19 20 21 22 23 24 25 26 27 28 29 30 31 32 33 34 35 36 37 38 39 40 41 42 43 44 45 46 47 48 49 50

000
ASUS43 KBIS 060720
RWRND

NORTH DAKOTA REGIONAL WEATHER ROUNDUP
NATIONAL WEATHER SERVICE BISMARCK ND
100 AM CST FRI MAR 06 2015

NOTE: "FAIR" INDICATES FEW OR NO CLOUDS BELOW 12,000 FEET WITH NO
SIGNIFICANT WEATHER AND/OR OBSTRUCTIONS TO VISIBILITY.


NDZ001>003-009>011-017-060800-
NORTHWEST NORTH DAKOTA

CITY           SKY/WX    TMP DP  RH WIND       PRES   REMARKS
WILLISTON      CLEAR     26  18  71 NW5       30.04S
MINOT          CLEAR     24  15  68 W20       29.99R WCI  10
MINOT AFB      CLEAR     19  16  88 NW12      29.99R WCI   6
$$

NDZ018>021-031>035-040>046-060800-
SOUTHWEST NORTH DAKOTA

CITY           SKY/WX    TMP DP  RH WIND       PRES   REMARKS
BISMARCK       MOCLDY    26  14  60 W9        30.01F WCI  17
DICKINSON      PTCLDY    25  13  60 W10       30.00S WCI  15
GARRISON         N/A     25  16  68 NW15      29.99R WCI  13
HETTINGER ARPT MOCLDY    26  13  57 W9        30.05F WCI  17
$$

NDZ004>008-012>016-024-026-027-054-060800-
NORTHEAST NORTH DAKOTA

CITY           SKY/WX    TMP DP  RH WIND       PRES   REMARKS
GRAND FORKS    FAIR      15   9  76 S6        29.96S WCI   6
GRND FRKS AFB  FAIR      15   8  72 VRB3      29.94S
DEVILS LAKE    CLEAR     19  10  68 NW15      29.94R WCI   5
$$

NDZ022-023-025-028>030-036>039-047>053-060800-
SOUTHEAST NORTH DAKOTA

CITY           SKY/WX    TMP DP  RH WIND       PRES   REMARKS
FARGO          CLOUDY    18   8  65 S15       30.01F WCI   4
JAMESTOWN      CLEAR     23  11  60 W12       29.95F WCI  12
$$



USA.gov is the U.S. government's official web portal to all federal, state and local government web resources and services.